Regional Weather Roundup
Issued by NWS

Home | Current Version | Previous Version | Graphics & Text | Print | Product List | Glossary On
Versions: 1 2 3 4 5 6 7 8 9 10 11 12 13 14 15 16 17 18 19 20 21 22 23 24 25 26 27 28 29 30 31 32 33 34 35 36 37 38 39 40 41 42 43 44 45 46 47 48 49
000
ASUS43 KDMX 230107
RWRIA

WEATHER ROUNDUP FOR IOWA
NATIONAL WEATHER SERVICE DES MOINES IA
700 PM CST MON DEC 22 2014

NOTE: "FAIR" INDICATES FEW OR NO CLOUDS BELOW 12,000 FEET WITH NO
SIGNIFICANT WEATHER AND/OR OBSTRUCTIONS TO VISIBILITY.

* - THESE STATIONS ARE NOT NWS STATIONS...THUS NOT UNDER NWS
QUALITY CONTROL.  THEY ALSO DO NOT REPORT WEATHER SUCH
AS PRECIPITATION OR FOG.

IAZ001>003-012>014-020>022-031>034-043>046-230200-
   NORTHWEST IOWA

CITY           SKY/WX    TMP DP  RH WIND       PRES   REMARKS
CARROLL *      CLOUDY    37  37 100 E13       29.44S FOG     WCI  29
CHEROKEE *     LGT RAIN  37  37 100 E8        29.45S WCI  31
DENISON *      MIX PCPN  39  39 100 E7        29.41S WCI  34
LE MARS *        N/A     39  39 100 CALM      29.44S FOG
ORANGE CITY *  DRIZZLE   39  37  93 E7        29.44R WCI  34
SHELDON *      MIX PCPN  37  37 100 E12       29.45R WCI  30
SIOUX CITY     LGT RAIN  40  37  89 NW9       29.44R WCI  34
SPENCER        LGT RAIN  37  34  89 E15       29.47S FOG     WCI  28
STORM LAKE *   MIX PCPN  37  37 100 E12       29.45S WCI  30
$$

IAZ055>058-069>071-079>083-090>094-230200-
   SOUTHWEST IOWA

CITY           SKY/WX    TMP DP  RH WIND       PRES   REMARKS
ATLANTIC *     CLOUDY    41  41 100 CALM      29.42S
AUDUBON *      LGT RAIN  39  36  87 E5        29.44R
CLARINDA *     LGT RAIN  43  43 100 W9        29.45R
COUNCIL BLFS * MIX PCPN  41  41 100 NW7G15    29.43R
CRESTON *      CLOUDY    41  41 100 SE7       29.42S FOG
HARLAN  *      LGT RAIN  41  41 100 E5        29.46R
LAMONI         CLOUDY    41  41 100 SE5       29.42S FOG
RED OAK *      CLOUDY    41  41 100 CALM      29.43R
SHENANDOAH *   MOCLDY    41  41 100 W9        29.45S
$$

IAZ047>049-059>061-072>074-084-230200-
   CENTRAL IOWA

CITY           SKY/WX    TMP DP  RH WIND       PRES   REMARKS
AMES           CLOUDY    37  36  96 E8        29.47S FOG     WCI  31
ANKENY *       LGT RAIN  37  37 100 E7        29.47S WCI  32
CHARITON *     MIX PCPN  39  39 100 E8        29.45S WCI  34
DES MOINES     LGT RAIN  40  37  89 E7        29.46S FOG
GRINNELL*      SNOW      37  37 100 E9        29.48F VSB 1/2 WCI  31
KNOXVILLE *    MIX PCPN  39  37  93 E7        29.45S WCI  34
MARSHALLTOWN   FOG       36  36 100 E12       29.48S VSB 1/4 WCI  28
PELLA *        RAIN      39  39 100 E7        29.49R WCI  34
PERRY *        CLOUDY    39  39 100 E9        29.45S FOG     WCI  33
$$

IAZ004>006-015-016-023>025-035-036-230200-
   NORTH CENTRAL IOWA

CITY           SKY/WX    TMP DP  RH WIND       PRES   REMARKS
ALGONA *       FOG       36  36 100 E12       29.50R VSB 1   WCI  27
CLARION *      FOG       36  36 100 E10G18    29.49S VSB 1/2 WCI  28
ESTHERVILLE    CLOUDY    33  33 100 E14       29.49R FOG     WCI  23
FORT DODGE *   CLOUDY    36  32  87 E13       29.48S WCI  27
MASON CITY       N/A     35  34  96 E14       29.53S FOG     WCI  26
FOREST CITY *  CLOUDY    36  34  93 E9        29.51S FOG     WCI  29
IOWA FALLS *   RAIN      36  34  93 E13       29.50S VSB 1/2 WCI  27
$$

IAZ007>011-017>019-026>030-037>042-050>054-066-230200-
   NORTHEAST IOWA

CITY           SKY/WX    TMP DP  RH WIND       PRES   REMARKS
CEDAR RAPIDS   FOG       36  36 100 E10       29.51F VSB 1/4 WCI  28
CHARLES CITY * CLOUDY    34  34 100 E15       29.54S FOG     WCI  24
CLINTON *      CLOUDY    37  36  93 E12       29.59S WCI  30
DECORAH *      CLOUDY    34  34 100 E14       29.56S FOG     WCI  24
DUBUQUE        FOG       35  35 100 E13       29.57S VSB 3/4 WCI  26
MONTICELLO *   FOG       36  36 100 E8        29.55F VSB 1/2 WCI  29
OELWEIN *      FOG       34  34 100 E13       29.54S VSB 1/2 WCI  25
WATERLOO       FOG       35  35 100 E12       29.52S VSB 3/4 WCI  27
$$

IAZ064-065-067-068-078-230200-
   EAST CENTRAL IOWA

CITY           SKY/WX    TMP DP  RH WIND       PRES   REMARKS
DAVENPORT      FOG       39  37  92 E10       29.56S VSB 1   WCI  32
IOWA CITY      LGT RAIN  38  38 100 E6        29.53F VSB 3/4 WCI  33
MT. PLEASANT * LGT RAIN  41  41 100 E9        29.50F
MUSCATINE *    LGT RAIN  41  41 100 E10       29.54S
QUAD CITIES    CLOUDY    40  39  97 E7        29.55S FOG
$$

IAZ062-063-075>077-085>089-095>099-230200-
   SOUTHEAST IOWA

CITY           SKY/WX    TMP DP  RH WIND       PRES   REMARKS
BURLINGTON     LGT RAIN  42  42 100 SE6       29.51F FOG
FAIRFIELD *    MIX PCPN  41  39  93 E10       29.49S
FORT MADISON * LGT RAIN  45  45 100 E8        29.51S
KEOKUK *       CLOUDY    43  43 100 SE9       29.49S FOG
OSKALOOSA *    LGT RAIN  39  37  93 E12       29.48S WCI  32
CENTERVILLE *  LGT RAIN  39  39 100 E7        29.47S WCI  34
OTTUMWA        LGT RAIN  40  39  97 E9        29.47S FOG     WCI  34
WASHINGTON *   FOG       41  41 100 E10       29.51S VSB 3/4
$$

ABBREVIATIONS USED IN REMARKS
   TC - TEMPERATURES IN CELSIUS
  WCI - WIND CHILL INDEX
   HX - HEAT INDEX
  VSB - VISIBILITY
$$




USA.gov is the U.S. government's official web portal to all federal, state and local government web resources and services.